Tracking 29892 objects as of 21-Nov-2024
HD Live streaming from Space Station
objects crossing your sky now

IRIDIUM 33 DEB

Track IRIDIUM 33 DEB now!
10-day predictions


NORAD ID: 34497
Int'l Code: 1997-051GN
Perigee: 754.2 km
Apogee: 874.6 km
Inclination: 86.3 °
Period: 101.0 minutes
Semi major axis: 7185 km
RCS: 0.0047 m2 (small)
Launch date: September 14, 1997
Source: United States (US)
Launch site: TYURATAM MISSILE AND SPACE COMPLEX (TTMTR)

Note: This is SATELLITE DEBRIS
Your satellite tracking list
Your tracking list is empty




NASA's NSSDC Master Catalog

Two Line Element Set (TLE):
1 34497U 97051GN  24325.18832163  .00002754  00000-0  11189-2 0  9997
2 34497  86.2826 217.5621 0083754 143.7686   9.9710 14.25369041813583
Source of the keplerian elements: AFSPC